Theta_e
352 359 366 367 367 367 366 365 364 362 362 362 362 362 362 362 363 362 362 361 362 359 358 357 355 353 352 353 355 356 356 355 354 353 354 354 354 354 351 349 352 346 350
355 360 364 366 367 367 367 365 364 362 362 362 362 362 362 362 363 363 362 361 360 357 355 354 352 351 352 353 354 354 354 353 353 351 352 354 354 352 351 348 351 349 349
356 360 361 365 367 367 367 365 364 362 361 362 362 362 362 362 362 362 362 360 358 356 352 350 350 351 352 353 354 354 354 352 350 349 353 354 344 349 349 349 350 350 349
357 360 359 364 366 366 366 365 363 362 361 362 362 362 362 362 362 361 360 359 356 353 350 348 349 351 353 353 353 353 352 352 351 352 353 346 345 350 348 347 347 349 349
356 359 363 364 365 365 365 365 363 362 362 362 362 362 362 362 362 361 360 359 355 352 348 347 349 350 352 353 352 352 351 351 351 350 348 347 348 350 351 348 347 346 347
352 355 361 363 364 364 364 364 363 363 363 363 363 362 362 361 361 360 360 358 355 351 347 346 346 347 348 348 347 346 345 344 346 348 345 347 345 352 352 349 349 347 346
352 353 362 362 363 364 364 364 363 363 363 363 363 362 361 361 359 359 358 356 354 350 347 345 344 345 345 344 342 341 342 343 341 342 340 344 350 354 352 351 350 348 348
352 353 362 360 362 362 363 362 362 362 362 363 363 362 361 359 358 357 357 356 355 352 349 346 345 345 344 343 341 340 341 342 340 338 339 339 348 350 351 351 352 351 349
353 352 358 356 359 361 361 361 361 361 361 361 361 360 360 358 357 356 356 355 353 352 351 348 345 344 342 342 341 342 343 344 340 342 341 340 349 348 348 351 353 354 351
351 351 356 354 352 354 357 360 360 360 360 360 360 359 359 356 355 354 354 353 351 350 349 348 346 344 343 344 344 343 343 344 337 339 343 342 349 346 347 352 355 355 354
347 351 355 352 352 351 350 355 358 359 359 359 359 358 356 352 354 352 349 354 351 349 348 348 347 346 345 346 347 346 343 335 337 341 342 349 344 341 343 350 353 357 355
344 347 353 355 354 352 349 355 352 350 352 353 353 356 353 351 350 344 349 353 350 349 348 348 348 347 344 335 340 345 338 336 338 339 343 351 347 346 347 350 353 356 357
344 346 349 357 361 354 350 351 353 347 347 349 351 356 358 351 349 343 345 345 345 348 340 343 342 340 337 338 338 340 339 342 341 338 345 351 348 348 350 351 354 355 357
342 346 349 355 362 363 353 350 353 346 348 347 346 359 359 352 354 352 343 345 347 340 342 343 338 344 342 343 344 346 343 343 344 345 347 351 348 347 349 352 353 357 356
338 346 349 354 363 366 367 354 354 353 349 350 350 354 354 351 354 349 350 342 343 341 341 340 341 342 342 343 348 347 345 345 347 347 347 352 350 349 349 351 353 357 358
340 345 348 353 363 362 363 364 360 360 351 350 349 352 356 353 356 347 349 345 343 343 340 341 343 342 342 343 347 349 350 349 349 350 348 350 351 350 351 351 353 356 358
333 341 345 353 358 364 363 361 362 355 354 350 351 361 360 360 359 354 348 348 347 351 352 347 345 344 341 344 348 349 349 350 349 351 351 350 348 350 351 352 353 355 358
330 332 335 343 352 363 364 361 360 357 355 353 354 357 360 357 358 359 348 347 349 350 348 345 341 338 339 341 347 347 348 351 350 351 351 348 345 345 349 351 352 353 355
328 331 333 338 343 353 366 361 363 366 360 358 357 356 360 360 359 355 351 349 357 349 348 345 343 343 341 342 341 347 350 349 352 348 352 354 355 350 348 353 350 350 352
327 331 333 334 344 354 354 363 357 357 361 360 358 356 362 361 359 359 354 350 356 349 348 347 348 346 343 343 336 339 348 347 348 351 351 349 350 351 353 358 358 352 349
327 330 334 335 341 342 340 346 350 350 355 356 357 361 361 361 358 359 353 356 351 351 352 354 350 351 344 348 342 342 345 354 354 346 347 346 348 350 349 355 361 359 353
326 329 332 334 339 341 339 348 349 352 351 354 354 360 360 359 361 358 358 356 355 348 353 352 351 342 342 346 339 338 336 341 344 346 345 346 349 349 348 354 356 360 352
324 327 329 332 335 339 346 347 355 354 353 349 350 352 356 359 359 359 361 358 358 355 349 353 351 346 337 343 350 343 340 331 344 347 350 345 351 346 348 350 352 357 358
322 324 327 331 334 336 342 342 347 345 343 344 346 348 354 359 358 358 360 360 361 353 351 352 351 347 346 340 344 344 346 342 329 328 342 345 347 347 349 346 348 352 355
321 322 325 329 332 335 339 344 337 341 340 343 345 352 357 360 359 354 359 359 357 353 352 352 352 351 346 341 339 339 341 336 340 328 324 329 338 342 343 345 346 347 350
319 320 322 325 331 332 334 337 343 344 343 340 344 344 346 347 355 359 356 358 358 356 355 352 355 352 350 346 340 340 335 331 330 330 327 330 330 334 338 345 346 346 348
Wind_Speed
16 19 14 15 14 12 14 15 15 14 15 14 13 13 12 11 11 11 11 11 10 11 11 10 10 10 10 10 10 9 9 8 7 7 7 8 8 7 6 6 6 9 9
20 20 15 15 15 13 13 14 13 14 14 14 14 13 12 12 12 11 11 10 10 10 10 10 10 10 10 10 9 8 7 6 5 4 5 10 9 6 5 5 12 10 8
18 19 18 15 15 14 13 13 12 13 13 13 13 13 12 12 11 11 11 10 9 9 9 9 10 10 10 9 8 6 5 4 2 4 8 9 10 6 5 5 6 7 6
17 16 17 14 14 14 13 13 13 12 12 12 12 12 12 11 11 11 11 10 10 10 9 9 9 9 8 8 7 5 4 3 3 7 9 2 10 10 5 3 2 3 2
15 16 16 14 14 14 13 11 12 13 12 11 12 11 11 10 10 10 10 10 9 9 9 9 9 8 8 6 6 5 4 3 6 11 7 2 5 12 7 3 5 3 3
14 16 20 15 14 14 13 13 12 13 12 11 11 11 10 10 8 8 9 8 9 9 9 8 7 7 7 6 5 4 4 5 9 13 2 5 6 12 8 3 1 3 1
13 15 17 15 15 15 15 13 12 13 13 12 11 10 10 10 9 8 8 8 8 9 8 8 7 5 5 6 5 4 5 7 11 15 3 1 5 11 8 5 2 2 2
12 12 15 14 13 13 13 14 14 13 13 13 12 11 10 9 9 9 8 7 7 7 8 7 6 6 4 4 4 4 6 8 11 9 5 5 11 7 6 5 4 4 3
12 12 14 17 14 14 13 13 13 13 13 13 13 12 10 9 7 7 7 7 7 7 6 7 6 5 4 5 4 5 6 8 10 11 6 4 12 8 5 5 6 6 5
12 13 14 15 16 15 14 13 13 13 13 12 11 12 11 11 9 7 4 6 5 6 7 7 6 6 6 6 6 8 8 11 11 12 6 6 11 6 3 6 8 7 7
10 11 13 15 15 15 15 14 11 13 12 13 12 11 11 9 11 12 11 11 9 6 6 6 6 7 7 9 11 11 10 8 10 7 5 12 11 6 4 6 8 9 9
11 12 12 13 14 14 12 13 13 13 12 12 13 14 11 11 10 11 12 13 10 7 7 8 8 8 8 9 10 13 8 10 8 5 1 11 10 6 6 7 8 9 11
13 11 12 13 12 14 12 10 8 8 9 9 14 12 12 10 9 8 8 8 8 11 8 10 9 9 11 9 7 8 7 5 5 5 9 12 9 7 9 8 8 8 10
17 14 12 14 10 11 9 9 10 10 10 9 12 13 9 8 8 7 8 9 8 8 9 8 7 7 7 7 8 9 8 6 5 3 7 12 9 8 9 9 9 10 11
13 14 13 12 13 10 9 9 9 9 8 10 10 12 10 11 8 9 8 9 9 9 9 8 7 5 6 8 8 8 8 7 6 5 5 12 12 11 11 10 10 8 10
11 6 10 12 10 11 10 11 8 8 11 10 11 11 14 9 9 10 9 9 9 8 9 8 7 7 7 7 7 6 7 7 7 6 6 3 13 13 13 12 11 9 10
9 7 8 11 14 14 15 13 10 11 12 11 11 14 15 13 10 11 10 8 8 6 6 6 5 6 6 6 8 7 7 8 8 8 5 7 4 12 14 13 12 11 10
9 8 9 10 14 15 13 11 11 12 12 12 11 10 15 15 14 12 10 10 9 7 7 7 9 9 8 7 5 6 6 6 6 6 7 7 6 7 9 13 13 13 12
8 8 8 9 12 11 13 11 12 12 12 11 11 11 16 16 16 10 11 9 9 7 8 9 6 8 7 6 6 6 5 6 7 8 8 8 8 7 5 5 13 12 12
5 6 6 7 9 9 9 10 11 11 10 11 11 11 12 13 14 13 10 6 13 10 9 8 7 8 8 5 8 6 4 5 7 6 7 7 7 7 5 6 4 8 13
6 6 6 7 6 7 10 11 11 12 12 13 12 13 12 11 14 15 12 10 9 8 5 11 9 7 5 4 5 5 5 8 6 5 5 2 3 6 5 5 2 5 4
7 7 6 6 7 7 9 9 10 10 13 13 12 12 13 13 14 14 15 13 13 10 11 12 11 9 8 7 6 5 4 3 4 3 5 2 2 2 4 5 1 2 1
7 8 8 8 8 8 9 9 9 10 11 11 12 12 13 15 14 15 15 13 13 13 12 11 12 13 9 7 8 4 3 4 4 3 4 7 4 1 4 4 3 2 3
9 7 7 8 8 9 8 10 14 12 13 13 13 12 13 17 17 17 16 15 13 13 14 14 12 11 9 10 8 7 4 4 7 7 7 9 5 6 3 4 4 5 5
8 8 8 8 9 10 10 10 11 13 13 12 12 13 12 12 16 18 17 17 16 13 13 14 15 13 14 11 11 9 8 8 7 7 9 9 7 8 6 6 5 5 5
9 11 8 10 10 10 10 11 12 14 15 14 13 12 11 12 13 16 17 16 16 15 14 14 15 16 14 12 10 12 11 10 11 9 10 10 12 12 8 4 5 6 5
Wind_Direction
130 136 131 131 133 138 147 148 148 151 151 149 143 139 135 131 130 128 129 124 120 118 118 118 113 107 105 102 100 101 103 103 97 90 94 100 97 79 65 26 328 96 82
125 145 138 135 136 141 148 152 153 153 155 151 147 145 142 140 142 138 138 133 127 126 125 121 112 108 109 109 110 111 112 108 106 125 133 129 101 88 76 43 38 82 77
126 148 153 139 139 145 149 154 155 155 159 156 151 149 149 148 148 144 141 141 141 136 128 121 122 122 122 119 118 125 133 133 169 228 223 241 94 104 84 64 65 83 85
129 147 157 140 140 143 148 153 156 157 161 158 153 154 153 152 150 149 148 152 151 142 132 132 131 132 131 131 138 149 160 175 240 271 258 142 119 129 117 98 74 79 99
142 155 140 142 139 145 151 151 156 158 159 158 154 155 156 155 152 155 156 157 153 144 144 145 143 144 143 151 159 178 197 236 263 270 266 55 310 130 141 158 178 167 74
154 159 136 145 142 144 151 155 158 155 153 154 154 155 158 157 154 160 157 159 156 154 152 149 152 155 158 170 183 206 236 255 273 253 103 106 273 131 141 169 5 63 47
155 155 152 149 149 150 153 156 158 154 149 148 150 155 160 155 156 163 164 168 165 160 156 156 161 162 172 188 199 222 258 277 279 303 329 253 75 134 148 172 217 242 253
152 155 147 149 148 149 156 158 157 155 152 151 150 155 158 157 161 169 172 179 174 162 159 164 173 174 185 206 215 241 265 280 284 266 309 301 117 126 165 194 212 246 255
154 165 151 171 166 155 162 162 162 157 157 155 152 150 150 157 165 178 178 185 174 162 162 170 181 195 208 223 232 255 268 276 285 291 295 230 112 131 186 222 228 232 237
163 167 158 178 179 183 177 170 167 165 160 156 156 152 154 158 168 181 183 188 188 177 178 184 191 205 218 238 243 244 254 269 259 272 237 116 120 136 209 249 244 238 225
171 170 169 178 181 192 187 177 175 175 173 162 162 165 161 203 183 180 196 155 176 189 197 208 211 219 232 238 232 230 239 254 259 230 283 128 123 143 218 255 249 240 228
188 192 176 183 182 196 201 173 198 196 201 203 199 189 213 214 202 200 174 160 172 192 207 214 222 234 237 253 207 212 232 249 254 263 220 129 134 175 215 240 246 236 227
200 202 191 180 180 199 207 178 189 202 202 205 210 204 196 206 203 199 160 176 194 191 213 198 205 228 232 247 286 215 244 265 258 246 113 137 148 191 224 233 242 238 230
190 192 198 177 189 194 212 192 191 203 193 197 201 195 205 212 196 200 212 193 192 188 208 216 211 228 245 269 272 280 283 279 282 311 133 145 158 205 238 243 242 234 224
224 180 197 205 190 196 233 215 207 205 199 196 196 193 213 199 202 195 208 220 182 209 187 218 219 229 237 244 254 258 259 268 285 279 289 168 178 199 227 241 244 234 218
265 206 196 205 188 192 211 238 205 214 217 204 202 199 201 208 193 202 215 210 213 209 206 203 209 212 216 245 260 261 261 268 262 273 280 233 188 197 213 226 233 227 212
235 245 240 215 197 202 210 218 239 216 219 210 215 195 190 207 207 205 205 203 221 207 225 215 218 207 241 237 245 264 261 248 250 244 264 276 232 198 207 215 216 213 215
279 245 208 241 199 197 216 218 224 227 228 228 210 210 196 196 205 196 206 204 206 217 190 230 204 228 215 222 241 272 274 273 273 277 264 264 277 296 194 218 216 205 207
257 256 264 261 247 213 202 225 224 233 226 223 232 208 198 204 201 197 210 197 200 217 207 216 209 227 223 212 234 227 244 265 277 282 299 292 261 260 263 232 208 210 207
330 330 305 279 284 297 244 205 236 230 231 235 230 234 207 197 202 212 211 212 177 188 203 244 222 210 216 198 226 236 231 266 263 273 279 281 279 268 243 269 200 216 213
310 314 308 316 271 240 243 232 227 232 227 231 230 229 229 187 207 214 219 218 216 202 215 206 209 232 212 258 217 216 227 207 227 300 246 230 306 253 219 226 237 260 176
295 289 292 286 286 266 248 242 252 239 229 224 225 223 222 217 207 211 217 205 204 192 206 222 197 198 215 208 204 222 207 199 179 258 305 248 10 264 240 211 224 273 260
298 297 309 315 305 285 278 271 240 242 261 246 218 219 215 216 217 217 213 224 196 201 200 195 196 195 200 199 213 210 183 219 125 206 212 273 287 305 315 267 203 325 252
285 317 304 319 315 294 270 261 266 267 237 232 238 227 209 204 215 214 220 208 220 200 218 190 199 196 194 194 195 213 227 231 220 216 210 206 206 251 212 265 295 307 311
306 307 319 331 312 304 295 285 277 255 259 252 246 248 223 203 205 217 212 216 209 208 205 200 185 199 200 227 216 203 211 204 221 238 245 235 217 217 213 219 249 281 295
318 312 321 315 294 309 296 282 270 266 278 278 252 243 234 217 195 210 220 207 209 201 196 203 194 193 217 224 232 228 219 217 218 225 242 251 256 260 259 225 248 242 252